Kelso, MO

3:13 PM CST on February 20, 2017 (GMT -0600)
Cape Girardeau Regional

Weather History for KCGI - November, 2014

Change the Weather History Date:

Tuesday, November 4, 2014

  Actual Average Record
Temperature  
Mean Temperature 53 °F 52 °F  
Max Temperature 56 °F 63 °F 82 °F (1987)
Min Temperature 50 °F 40 °F 16 °F (1991)
Degree Days  
Heating Degree Days 12 14  
Month to date heating degree days 76 53  
Since 1 July heating degree days 325 356  
Cooling Degree Days 0 0  
Month to date cooling degree days 0 0  
Year to date cooling degree days 1424 1451  
Growing Degree Days 2 (Base 50)    
Moisture  
Dew Point 48 °F    
Average Humidity 75    
Maximum Humidity 100    
Minimum Humidity 50    
Precipitation  
Precipitation 0.71 in 0.13 in 2.36 in (1994)
Month to date precipitation 0.71 0.52  
Year to date precipitation 39.37 38.64  
Sea Level Pressure  
Sea Level Pressure 30.17 in    
Wind  
Wind Speed 6 mph (West)    
Max Wind Speed 14 mph    
Max Gust Speed 17 mph    
Visibility 7 miles    
Events Rain    
T = Trace of Precipitation, MM = Missing Value Source: NWS Daily Summary

Daily Weather History Graph

Daily Weather History Graph

Search for Another Location

Airport or City:

Trip Planner

Search our weather history database for the weather conditions in past years. The results will help you decide how hot, cold, wet, or windy it might be!

Date:

Astronomy

Nov. 04, 2014 Rise Set
Actual Time 6:25 AM CST 4:57 PM CST
Civil Twilight 5:58 AM CST 5:24 PM CST
Nautical Twilight 5:27 AM CST 5:55 PM CST
Astronomical Twilight 4:57 AM CST 6:25 PM CST
Moon 3:41 PM CST (11/4) 3:47 AM CST (11/4)
Length of Visible Light 11h 25m
Length of Day
10h 31m
Waxing Gibbous, 94% of the Moon is Illuminated
Nov 4
Waxing Gibbous
Nov 6
Full
Nov 14
Last Quarter
Nov 22
New
Nov 29
First Quarter

Hourly Weather History & Observations

Time (CST) Temp. Dew Point Humidity Pressure Visibility Wind Dir Wind Speed Gust Speed Precip Events Conditions
12:53 AM 51.1 °F 36.0 °F 56% 30.19 in 10.0 mi SSW 6.9 mph - N/A   Clear
1:53 AM 50.0 °F 37.0 °F 61% 30.17 in 10.0 mi South 5.8 mph - N/A   Clear
2:53 AM 51.1 °F 37.0 °F 59% 30.15 in 10.0 mi South 6.9 mph - N/A   Clear
3:53 AM 53.1 °F 37.0 °F 55% 30.15 in 10.0 mi South 6.9 mph - N/A   Clear
4:53 AM 54.0 °F 37.0 °F 53% 30.14 in 10.0 mi South 9.2 mph - N/A   Mostly Cloudy
5:53 AM 54.0 °F 37.9 °F 55% 30.14 in 10.0 mi South 11.5 mph - N/A   Mostly Cloudy
6:53 AM 55.0 °F 39.0 °F 55% 30.14 in 10.0 mi South 8.1 mph - N/A   Overcast
7:53 AM 55.0 °F 41.0 °F 59% 30.17 in 10.0 mi West 6.9 mph - N/A   Overcast
8:53 AM 55.0 °F 43.0 °F 64% 30.16 in 10.0 mi South 9.2 mph - N/A   Overcast
9:39 AM 55.0 °F 44.1 °F 67% 30.17 in 10.0 mi SSW 10.4 mph - N/A   Overcast
9:46 AM 55.0 °F 45.0 °F 69% 30.17 in 10.0 mi SSW 9.2 mph - N/A   Overcast
9:53 AM 55.0 °F 45.0 °F 69% 30.17 in 10.0 mi SSW 8.1 mph - N/A   Overcast
10:11 AM 53.1 °F 48.0 °F 83% 30.18 in 10.0 mi SW 9.2 mph - 0.00 in Rain Light Rain
10:45 AM 52.0 °F 48.9 °F 89% 30.17 in 3.0 mi SW 6.9 mph - 0.01 in   Overcast
10:53 AM 52.0 °F 48.9 °F 89% 30.17 in 3.0 mi SW 6.9 mph - 0.01 in Rain Light Rain
11:51 AM 51.8 °F 50.0 °F 94% 30.16 in 2.0 mi WSW 4.6 mph - 0.03 in Rain Light Rain
11:53 AM 52.0 °F 50.0 °F 93% 30.16 in 2.0 mi WSW 4.6 mph - 0.04 in Rain Rain
11:58 AM 52.0 °F 50.0 °F 93% 30.16 in 7.0 mi WSW 4.6 mph - 0.01 in Rain Light Rain
12:05 PM 52.0 °F 50.0 °F 93% 30.16 in 1.0 mi WSW 3.5 mph - 0.01 in Rain Light Rain
12:23 PM 52.0 °F 50.0 °F 93% 30.15 in 1.0 mi WSW 5.8 mph - 0.02 in Rain Light Rain
12:53 PM 52.0 °F 51.1 °F 97% 30.14 in 1.0 mi West 4.6 mph - 0.04 in Rain Light Rain
1:16 PM 52.0 °F 51.1 °F 97% 30.13 in 1.5 mi West 4.6 mph - 0.01 in Rain Light Rain
1:42 PM 52.0 °F 51.1 °F 97% 30.13 in 1.5 mi West 4.6 mph - 0.02 in   Overcast
1:53 PM 53.1 °F 51.1 °F 93% 30.13 in 1.5 mi West 5.8 mph - 0.02 in Rain Light Rain
2:00 PM 52.0 °F 51.1 °F 97% 30.13 in 3.0 mi WSW 4.6 mph - 0.00 in Rain Light Rain
2:53 PM 53.1 °F 52.0 °F 96% 30.14 in 3.0 mi Calm Calm - 0.11 in Rain Rain
3:06 PM 53.1 °F 52.0 °F 96% 30.14 in 3.0 mi Calm Calm - 0.01 in Rain Light Rain
3:21 PM 53.1 °F 52.0 °F 96% 30.15 in 3.0 mi WSW 4.6 mph - 0.03 in Rain Light Rain
3:53 PM 53.1 °F 52.0 °F 96% 30.15 in 3.0 mi WNW 3.5 mph - 0.08 in Rain Rain
4:09 PM 53.1 °F 52.0 °F 96% 30.16 in 2.0 mi West 4.6 mph - 0.04 in Rain Rain
4:53 PM 53.1 °F 52.0 °F 96% 30.15 in 10.0 mi WNW 4.6 mph - 0.08 in Rain Light Rain
5:24 PM 53.1 °F 52.0 °F 96% 30.16 in 10.0 mi West 3.5 mph - 0.03 in Rain Light Rain
5:53 PM 52.0 °F 51.1 °F 97% 30.16 in 10.0 mi WNW 3.5 mph - 0.09 in Rain Rain
6:53 PM 52.0 °F 51.1 °F 97% 30.18 in 10.0 mi NW 3.5 mph - 0.12 in Rain Light Rain
7:05 PM 53.1 °F 51.1 °F 93% 30.18 in 10.0 mi Calm Calm - 0.01 in Rain Light Rain
7:53 PM 53.1 °F 51.1 °F 93% 30.19 in 10.0 mi NNW 4.6 mph - 0.06 in Rain Rain
8:02 PM 53.1 °F 51.1 °F 93% 30.19 in 10.0 mi NNW 4.6 mph - 0.01 in Rain Light Rain
8:31 PM 53.1 °F 51.1 °F 93% 30.20 in 10.0 mi North 4.6 mph - 0.04 in Rain Light Rain
8:53 PM 53.1 °F 51.1 °F 93% 30.20 in 10.0 mi Calm Calm - 0.05 in Rain Light Rain
9:24 PM 53.1 °F 51.1 °F 93% 30.20 in 10.0 mi NNW 4.6 mph - 0.00 in   Overcast
9:45 PM 53.1 °F 50.0 °F 89% 30.20 in 10.0 mi North 3.5 mph - 0.01 in   Overcast
9:53 PM 52.0 °F 50.0 °F 93% 30.20 in 10.0 mi NE 4.6 mph - 0.01 in   Mostly Cloudy
10:10 PM 52.0 °F 50.0 °F 93% 30.21 in 10.0 mi North 5.8 mph - N/A   Scattered Clouds
10:53 PM 51.1 °F 48.9 °F 92% 30.21 in 10.0 mi North 5.8 mph - N/A   Mostly Cloudy
11:36 PM 51.1 °F 48.9 °F 92% 30.21 in 10.0 mi North 4.6 mph - N/A   Overcast
11:43 PM 51.1 °F 48.9 °F 92% 30.21 in 10.0 mi NNW 4.6 mph - N/A   Overcast
11:53 PM 51.1 °F 48.0 °F 89% 30.21 in 10.0 mi North 5.8 mph - N/A   Overcast